Flag for Brazil Weather past 2 weeks in Pirassununga, São Paulo, Brazil

Now
93 °F

Partly sunny.


Feels Like: 92 °F
Forecast: 63 / 87 °F
Wind: 5 mph from West

Location: Pirassununga Airport

Current Time: Oct 24, 2014 at 5:05:14 PM

Latest Report: Oct 24, 2014 at 4:00 PM


Visibility: N/A

Pressure: 29.89 "Hg

Humidity: 30%

Dew point: 57 °F

Location of PirassunungaLocation

Historic Weather in Pirassununga — Graph

°F

Pirassununga temperature yesterday

Maximum temperature yesterday: 91 °F (at 4:00 PM)
Minimum temperature yesterday: 61 °F (at 6:00 AM)
Average temperature yesterday: 79 °F

Past Weeks' High & Low Weather Summary

 TemperatureHumidityPressure
High102 °F (Oct 18, 3:00 PM)100% (Oct 20, 7:00 AM)30.15 "Hg (Oct 20, 7:00 AM)
Low54 °F (Oct 10, 6:00 AM)16% (Oct 14, 2:00 PM)29.83 "Hg (Oct 18, 3:00 PM)
Average82 °F45%30.00 "Hg
* Reported Oct 9 2:00 PM — Oct 24 3:00 PM, Pirassununga, Weather by CustomWeather, © 2014

Note: Actual official high and low records may vary slightly from our data, if they occured in-between our weather recording intervals... More about our weather records

Advertising

Pirassununga weather history for previous 24 hours

 ConditionsComfort  
Time TempWeatherWind HumidityBarometerVisibility
3:00 PM
Oct 24
91 °FPartly sunny.5 mph32%29.92 "HgN/A
2:00 PM90 °FPartly sunny.12 mph36%29.98 "HgN/A
1:00 PM88 °FScattered clouds.9 mph38%30.01 "HgN/A
12:00 PM86 °FScattered clouds.12 mph43%30.04 "HgN/A
11:00 AM82 °FScattered clouds.12 mph51%30.07 "HgN/A
10:00 AM79 °FSunny.12 mph58%30.07 "Hg10 mi
9:00 AM75 °FSunny.9 mph65%30.07 "Hg10 mi
8:00 AM72 °FSunny.3 mph73%30.04 "Hg10 mi
7:00 AM68 °FSunny.2 mph83%30.01 "Hg10 mi
6:00 AM68 °FClear.5 mph88%29.98 "Hg10 mi
11:00 PM
Oct 23
79 °FClear.9 mph54%30.01 "Hg10 mi
10:00 PM81 °FClear.2 mph48%30.01 "Hg10 mi
9:00 PM81 °FPassing clouds.5 mph51%29.98 "HgN/A
8:00 PM81 °FPassing clouds.6 mph48%29.95 "HgN/A
7:00 PM84 °FScattered clouds.5 mph40%29.95 "HgN/A
6:00 PM88 °FScattered clouds.5 mph33%29.92 "HgN/A
5:00 PM90 °FSunny.6 mph31%29.95 "Hg10 mi
Weather by CustomWeather, © 2014

See weather overviewHow to use our weather pages